EN

Hourly Weather Topolyne

Today, 12 April, Monday

Time Temperature Precipitation Wind Pressure Humidity
00:00 +9°C° 0 mm 2 mps 765 mmHg 48%
01:00 +9°C° 0 mm 2 mps 765 mmHg 49%
02:00 +8°C° 0 mm 3 mps 765 mmHg 50%
03:00 +8°C° 0 mm 3 mps 765 mmHg 51%
04:00 +8°C° 0 mm 2 mps 765 mmHg 52%
05:00 +7°C° 0 mm 2 mps 764 mmHg 53%
06:00 +9°C° 0 mm 2 mps 764 mmHg 51%
07:00 +10°C° 0 mm 2 mps 764 mmHg 48%
08:00 +12°C° 0 mm 2 mps 764 mmHg 46%
09:00 +14°C° 0 mm 2 mps 764 mmHg 43%
10:00 +15°C° 0 mm 2 mps 764 mmHg 39%
11:00 +16°C° 0 mm 2 mps 764 mmHg 36%
12:00 +17°C° 0 mm 2 mps 763 mmHg 35%
13:00 +18°C° 0 mm 2 mps 763 mmHg 34%
14:00 +18°C° 0 mm 2 mps 762 mmHg 33%
15:00 +19°C° 0 mm 2 mps 762 mmHg 34%
16:00 +19°C° 0 mm 2 mps 762 mmHg 34%
17:00 +20°C° 0 mm 1 mps 762 mmHg 34%
18:00 +18°C° 0 mm 1 mps 762 mmHg 39%
19:00 +15°C° 0 mm 1 mps 762 mmHg 44%
20:00 +14°C° 0 mm 1 mps 762 mmHg 49%
21:00 +13°C° 0 mm 1 mps 762 mmHg 51%
22:00 +12°C° 0 mm 1 mps 762 mmHg 54%
23:00 +12°C° 0 mm 1 mps 761 mmHg 57%

Tomorrow, 13 April, Tuesday

Time Temperature Precipitation Wind Pressure Humidity
00:00 +12°C° 0 mm 1 mps 761 mmHg 57%
01:00 +11°C° 0 mm 1 mps 761 mmHg 57%
02:00 +11°C° 0 mm 1 mps 761 mmHg 57%
03:00 +11°C° 0 mm 1 mps 761 mmHg 58%
04:00 +11°C° 0 mm 1 mps 761 mmHg 59%
05:00 +10°C° 0 mm 1 mps 761 mmHg 61%
06:00 +11°C° 0 mm 1 mps 761 mmHg 60%
07:00 +12°C° 0 mm 1 mps 761 mmHg 59%
08:00 +13°C° 0 mm 2 mps 761 mmHg 59%
09:00 +13°C° 0 mm 2 mps 761 mmHg 58%
10:00 +14°C° 0 mm 2 mps 761 mmHg 58%
11:00 +14°C° 0 mm 2 mps 761 mmHg 57%
12:00 +14°C° 0 mm 2 mps 760 mmHg 59%
13:00 +13°C° 0 mm 3 mps 760 mmHg 60%
14:00 +13°C° 0 mm 3 mps 760 mmHg 62%
15:00 +13°C° 0 mm 3 mps 760 mmHg 66%
16:00 +12°C° 0 mm 4 mps 759 mmHg 70%
17:00 +11°C° 0 mm 4 mps 759 mmHg 73%
18:00 +11°C° 0 mm 4 mps 759 mmHg 75%
19:00 +10°C° 0 mm 4 mps 759 mmHg 77%
20:00 +10°C° 0 mm 4 mps 759 mmHg 78%
21:00 +10°C° 0 mm 4 mps 759 mmHg 78%
22:00 +10°C° 0 mm 4 mps 759 mmHg 78%
23:00 +10°C° 0 mm 4 mps 758 mmHg 78%

Day after tomorrow, 14 April, Wednesday

Time Temperature Precipitation Wind Pressure Humidity
00:00 +10°C° 0 mm 4 mps 758 mmHg 79%
01:00 +8°C° 0 mm 4 mps 758 mmHg 81%
02:00 +8°C° 0 mm 4 mps 758 mmHg 83%
03:00 +8°C° 0 mm 4 mps 758 mmHg 84%
04:00 +8°C° 0 mm 4 mps 758 mmHg 85%
05:00 +8°C° 0 mm 4 mps 757 mmHg 86%
06:00 +8°C° 0.1 mm 4 mps 757 mmHg 84%
07:00 +8°C° 0.1 mm 5 mps 757 mmHg 83%
08:00 +8°C° 0.1 mm 5 mps 757 mmHg 81%
09:00 +9°C° 0.1 mm 6 mps 757 mmHg 78%
10:00 +10°C° 0.1 mm 6 mps 757 mmHg 75%
11:00 +11°C° 0.1 mm 6 mps 756 mmHg 71%
12:00 +10°C° 1.1 mm 6 mps 756 mmHg 78%
13:00 +9°C° 1.1 mm 6 mps 756 mmHg 84%
14:00 +8°C° 1.1 mm 5 mps 756 mmHg 91%
15:00 +8°C° 0.3 mm 5 mps 756 mmHg 92%
16:00 +8°C° 0.3 mm 5 mps 755 mmHg 92%
17:00 +8°C° 0.3 mm 6 mps 755 mmHg 93%
18:00 +8°C° 0.1 mm 5 mps 755 mmHg 93%
19:00 +8°C° 0.1 mm 4 mps 755 mmHg 94%
20:00 +8°C° 0.1 mm 4 mps 755 mmHg 94%
21:00 +9°C° 0 mm 3 mps 755 mmHg 93%
22:00 +9°C° 0 mm 3 mps 755 mmHg 92%
23:00 +9°C° 0 mm 3 mps 756 mmHg 91%

15 April, Thursday

Time Temperature Precipitation Wind Pressure Humidity
00:00 +8°C° 0 mm 2 mps 756 mmHg 91%
01:00 +7°C° 0 mm 2 mps 756 mmHg 91%
02:00 +7°C° 0 mm 2 mps 756 mmHg 92%
03:00 +7°C° 0 mm 2 mps 756 mmHg 92%
04:00 +7°C° 0 mm 2 mps 756 mmHg 91%
05:00 +6°C° 0 mm 2 mps 756 mmHg 91%
06:00 +7°C° 0 mm 2 mps 756 mmHg 89%
07:00 +7°C° 0 mm 2 mps 756 mmHg 87%
08:00 +8°C° 0 mm 2 mps 756 mmHg 85%
09:00 +8°C° 0 mm 2 mps 756 mmHg 82%
10:00 +9°C° 0 mm 2 mps 756 mmHg 80%
11:00 +10°C° 0 mm 2 mps 756 mmHg 78%
12:00 +9°C° 0.2 mm 3 mps 756 mmHg 81%
13:00 +8°C° 0.2 mm 4 mps 757 mmHg 84%
14:00 +8°C° 0.2 mm 5 mps 757 mmHg 86%
15:00 +7°C° 0.2 mm 5 mps 757 mmHg 87%
16:00 +7°C° 0.2 mm 5 mps 757 mmHg 88%
17:00 +7°C° 0.2 mm 5 mps 757 mmHg 88%
18:00 +7°C° 0.2 mm 5 mps 757 mmHg 88%
19:00 +6°C° 0.2 mm 5 mps 757 mmHg 89%
20:00 +6°C° 0.2 mm 5 mps 757 mmHg 89%
21:00 +6°C° 0.1 mm 5 mps 757 mmHg 89%
22:00 +6°C° 0.1 mm 5 mps 757 mmHg 88%
23:00 +6°C° 0.1 mm 5 mps 757 mmHg 88%

16 April, Friday

Time Temperature Precipitation Wind Pressure Humidity
00:00 +6°C° 0.1 mm 5 mps 757 mmHg 88%
01:00 +6°C° 0.1 mm 5 mps 757 mmHg 88%
02:00 +6°C° 0.1 mm 5 mps 757 mmHg 88%
03:00 +5°C° 0.1 mm 5 mps 756 mmHg 88%
04:00 +5°C° 0.1 mm 5 mps 756 mmHg 88%
05:00 +5°C° 0.1 mm 5 mps 756 mmHg 88%
06:00 +5°C° 0.2 mm 5 mps 756 mmHg 88%
07:00 +5°C° 0.2 mm 5 mps 756 mmHg 88%
08:00 +5°C° 0.2 mm 5 mps 757 mmHg 88%
09:00 +5°C° 0.2 mm 5 mps 757 mmHg 87%
10:00 +5°C° 0.2 mm 5 mps 757 mmHg 87%
11:00 +4°C° 0.2 mm 6 mps 757 mmHg 87%
12:00 +4°C° 0.6 mm 6 mps 757 mmHg 87%
13:00 +4°C° 0.6 mm 7 mps 757 mmHg 88%
14:00 +4°C° 0.6 mm 7 mps 757 mmHg 88%
15:00 +4°C° 1.1 mm 7 mps 757 mmHg 88%
16:00 +5°C° 1.1 mm 8 mps 757 mmHg 88%
17:00 +5°C° 1.1 mm 8 mps 757 mmHg 88%
18:00 +6°C° 0.3 mm 8 mps 757 mmHg 87%
19:00 +6°C° 0.3 mm 9 mps 757 mmHg 86%
20:00 +6°C° 0.3 mm 9 mps 758 mmHg 85%
21:00 +6°C° 0 mm 8 mps 758 mmHg 85%
22:00 +6°C° 0 mm 8 mps 758 mmHg 85%
23:00 +6°C° 0 mm 8 mps 758 mmHg 85%

17 April, Saturday

Time Temperature Precipitation Wind Pressure Humidity
00:00 +6°C° 0 mm 8 mps 759 mmHg 85%
01:00 +6°C° 0 mm 8 mps 759 mmHg 85%
02:00 +6°C° 0 mm 8 mps 759 mmHg 85%
03:00 +6°C° 0 mm 7 mps 759 mmHg 86%
04:00 +6°C° 0 mm 7 mps 760 mmHg 86%
05:00 +7°C° 0 mm 6 mps 760 mmHg 87%
06:00 +7°C° 0 mm 6 mps 760 mmHg 85%
07:00 +7°C° 0 mm 6 mps 761 mmHg 83%
08:00 +7°C° 0 mm 6 mps 761 mmHg 82%
09:00 +8°C° 0 mm 5 mps 762 mmHg 76%
10:00 +9°C° 0 mm 5 mps 762 mmHg 70%
11:00 +10°C° 0 mm 5 mps 762 mmHg 65%
12:00 +12°C° 0 mm 5 mps 762 mmHg 60%
13:00 +12°C° 0 mm 5 mps 762 mmHg 55%
14:00 +13°C° 0 mm 5 mps 762 mmHg 51%
15:00 +13°C° 0 mm 5 mps 762 mmHg 51%
16:00 +13°C° 0 mm 4 mps 762 mmHg 52%
17:00 +13°C° 0 mm 4 mps 762 mmHg 52%
18:00 +12°C° 0 mm 4 mps 762 mmHg 57%
19:00 +11°C° 0 mm 3 mps 762 mmHg 62%
20:00 +10°C° 0 mm 3 mps 762 mmHg 66%
21:00 +9°C° 0 mm 3 mps 762 mmHg 71%
22:00 +8°C° 0 mm 4 mps 762 mmHg 77%
23:00 +7°C° 0 mm 4 mps 763 mmHg 82%
Show more

We Need Your Consent

Meteoprog and our Service Providers may store and access personal data such as cookies, device identifiers or other similar technologies on your device and process such data to personalise content and ads, as well as provide social media features and to analyse the traffic.

  • Store and/or access information on your device

    Cookies, device identifiers or other information can be stored or accessed on your device for the purposes indicated above.

  • Personalised ads and content, ad and content measurement, audience insights, and products development

    Ads and content can be personalised based on a profile. More data can be added to better personalise ads and content. Ad and content performance can be measured. Insights about the audience who saw the ads and content can be derived. Such data can be used to develop or improve user’s experience, systems and software.

By clicking ‘I Agree’ you will allow the use of indicated cookies, device identifiers, web beacons or other similar technologies. Your settings can be changed in the browser on your device.

For certain purposes, legitimate interests may be relied on, rather than consent. You can read more about this in our Privacy and Cookie Policy.